Location: Unspecified
(0.0000°N, 0.0000°E)
Time: 20:01:37
(UTC+00:00)

deb Briz - Pass Details

Date: 21 February 2026
Orbit: 1607 x 2037 km, 64.9° (Epoch: 11 March)

Event Time Altitude Azimuth Distance (km) Brightness Sun altitude
Rises 02:39:47 0° 174° (S) 5,263 ? -52.2°
Reaches altitude 10° 02:44:25 10° 158° (SSE) 4,188 ? -51.1°
Maximum altitude 02:51:34 20° 114° (ESE) 3,297 ? -49.3°
Drops below altitude 10° 02:58:18 10° 70° (ENE) 3,956 ? -47.7°
Sets 03:02:25 0° 55° (NE) 4,888 ? -46.7°
